STARLINK-1489 (45776 NORAD) Tracking and Keplerian Element Data

This shows tracking and keplerian element data for the satellite.

Feedback or suggestion? Click here.




ElementValue
Catalog45776
NameSTARLINK-1489
Epoch Orbit447
Epoch Day185.50001157
Epoch Year2020
RAAN197.5628
Inclination52.9986
Eccentricity0.0001122
Argument of Perigee115.745
Mean Anonmoly254.1377
Mean Motion15.63751342
Decay Rate-0.01074001
L11 45776U 20038AY 20185.50001157 -.01074001 00000-0 -12389-1 0 9996
L22 45776 52.9986 197.5628 0001122 115.7450 254.1377 15.63751342 4478

Live tracking and technical data element details for STARLINK-1489 (NORAD 45776). STARLINK-1489 can be tracked NOW for your location showing map with azimuth and elevation plus other details from your city location.

Track the satellite on the map from your city or location and see movement details for azimuth, elevation, latitude, longitude, range, height, and movement on the map or in text.







IsCatalogInMostPopularTable: catalog: 45776, numindb: 7
Update: records affected: 1



GetName: 45776 STARLINK-1489

Hit Count: updated at: Sat, 04 Jul 2020 03:27:30 GMT